Back to catalog

COSMOS 2565

AliveNavigationLEO
NORAD 54381·PAYLOAD·🇷🇺 Russia

Launched Nov 30, 2022 from Plesetsk Cosmodrome

Loading…

Next Passes (next 24 hours)

TLE

FreshSource: Space-Track

Epoch: Sep 14, 2026, 14:12 UTC

1 54381U 22163A   26257.59230896 -.00000061  00000-0  10454-4 0  9995
2 54381  67.1470 249.9592 0006718 266.7529  93.2787 13.96674964193258

Track COSMOS 2565 in real time with AllMySat

Download on the App Store